Regional Weather Roundup
Issued by NWS

Current Version | Previous Version | Text Only | Print | Product List | Glossary On
Versions: 1 2 3 4 5 6 7 8 9 10 11 12 13 14 15 16 17 18 19 20 21 22 23 24 25 26 27 28 29 30 31 32 33 34 35 36 37 38 39 40 41 42 43 44 45 46 47 48 49 50
000
ASUS44 KJAN 302303
RWRMS

MISSISSIPPI HOURLY WEATHER ROUNDUP
NATIONAL WEATHER SERVICE JACKSON MS
600 PM CDT TUE JUN 30 2015

NOTE: "FAIR: INDICATES FEW OR NO CLOUDS BELOW 12,000 FEET WITH NO
SIGNIFICANT WEATHER AND/OR OBSTRUCTIONS TO VISIBILITY.

MSZ001>002-007>008-010>013-018>021-025>028-034>036-010000-
NORTHWEST MISSISSIPPI

CITY           SKY/WX    TMP DP  RH WIND       PRES   REMARKS
CLARKSDALE     FAIR      84  75  74 CALM      29.93F HX  92
CLEVELAND      FAIR      85  79  81 CALM      29.92F HX  97
GREENWOOD      MOSUNNY   85  75  72 CALM      29.93F HX  93
GREENVILLE     MOSUNNY   91  75  59 W7        29.93R HX 101
OLIVE BRANCH   CLOUDY    84  73  70 SW9       29.93S HX  91
OXFORD         FAIR      79  72  78 SW6       29.96S
TUNICA         CLEAR     86  70  58 W6        29.93S HX  90
$$

MSZ003>006-009-014>017-022>024-029>033-037>039-010000-
NORTHEAST MISSISSIPPI

CITY           SKY/WX    TMP DP  RH WIND       PRES   REMARKS
COLUMBUS AFB   CLOUDY    81  71  71 SW7       29.95S
CORINTH        FAIR      82  72  69 SW6G14    29.92R
GOLDN TRIANGLE PTSUNNY   81  70  69 SW7       29.96R
STARKVILLE     FAIR      79  72  78 CALM      29.96S
TUPELO         SUNNY     81  73  76 SW6       29.94R
$$

MSZ040-058-010000-
CENTRAL MISSISSIPPI

CITY           SKY/WX    TMP DP  RH WIND       PRES   REMARKS
JACKSON INTL   PTSUNNY   82  67  60 W8        29.97S THUNDER
JACKSON HAWKNS LGT RAIN  78  69  73 W15       29.98S
MERIDIAN KEY   SUNNY     81  72  74 SW7       29.98S
MERIDIAN NAS   PTSUNNY   80  70  71 VRB7      29.99R
VICKSBURG      PTSUNNY   85  73  67 S15G26    29.98R HX  91
$$

MSZ059>079-010000-
SOUTH MISSISSIPPI

CITY           SKY/WX    TMP DP  RH WIND       PRES   REMARKS
BROOKHAVEN     FAIR      75  68  78 SW9G16    30.06S
HATTIESBURG    PTSUNNY   85  71  63 SW13      30.02S HX  90
MCCOMB         CLOUDY    71  68  90 SW7       30.05F
NATCHEZ        CLOUDY    75  64  69 S8        30.04S
PINE BELT      PTSUNNY   82  68  61 SW16G30   30.01F
$$

MSZ080>082-010000-
COASTAL MISSISSIPPI

CITY           SKY/WX    TMP DP  RH WIND       PRES   REMARKS
BAY ST LOUIS   PTSUNNY   82  72  69 MISG      30.04S
BILOXI         NOT AVBL
PASCAGOULA     PTSUNNY   81  70  69 S5        30.04R
GULFPORT       CLOUDY    81  71  71 S3        30.03S
$$


USA.gov is the U.S. government's official web portal to all federal, state and local government web resources and services.